Mountain Home, AR

2:24 AM CST on December 09, 2019 (GMT -0600)
Baxter County Regional

Weather History for KBPK - October, 2019

Change the Weather History Date:

Sunday, October 6, 2019

  Actual Average (KFLP) Record (KFLP)
Temperature  
Mean Temperature 60 °F -  
Max Temperature 68 °F 71 °F 90 °F (2018)
Min Temperature 54 °F 48 °F 35 °F (2001)
Degree Days  
Heating Degree Days 5    
Growing Degree Days 10 (Base 50)    
Moisture  
Dew Point 63 °F    
Average Humidity 100    
Maximum Humidity 100    
Minimum Humidity 89    
Precipitation  
Precipitation 1.87 in - - ()
Sea Level Pressure  
Sea Level Pressure 30.07 in    
Wind  
Wind Speed 3 mph (ENE)    
Max Wind Speed 10 mph    
Max Gust Speed 23 mph    
Visibility 7 miles    
Events Fog , Rain    
Averages and records for this station are not official NWS values.
T = Trace of Precipitation, MM = Missing Value Source: NWS Daily Summary

Daily Weather History Graph

Daily Weather History Graph

Search for Another Location

Airport or City:

Astronomy

Oct. 06, 2019 Rise Set
Actual Time 7:09 AM CDT 6:46 PM CDT
Civil Twilight 6:43 AM CDT 7:12 PM CDT
Nautical Twilight 6:13 AM CDT 7:41 PM CDT
Astronomical Twilight 5:43 AM CDT 8:11 PM CDT
Moon 3:13 PM CDT (10/6) 12:20 AM CDT (10/6)
Length of Visible Light 12h 28m
Length of Day
11h 37m
First Quarter, 60% of the Moon is Illuminated
Oct 6
First Quarter
Oct 13
Full
Oct 21
Last Quarter
Oct 27
New
Nov 4
First Quarter

Hourly Weather History & Observations

Time (CDT) Temp. Dew Point Humidity Pressure Visibility Wind Dir Wind Speed Gust Speed Precip Events Conditions
12:53 AM 66.9 °F 66.0 °F 97% 29.95 in 10.0 mi Calm Calm - N/A   Scattered Clouds
1:53 AM 66.9 °F 66.0 °F 97% 29.94 in 10.0 mi SSE 3.5 mph - N/A   Scattered Clouds
2:53 AM 66.0 °F 66.0 °F 100% 29.99 in 10.0 mi Calm Calm - 0.01 in Rain Light Rain
3:51 AM 66.2 °F 66.2 °F 100% 30.01 in 8.0 mi ENE 6.9 mph - 0.07 in Rain Light Rain
4:00 AM 66.9 °F 66.9 °F 100% 30.00 in 9.0 mi East 6.9 mph - 0.00 in Rain Light Rain
4:14 AM 66.0 °F 66.0 °F 100% 30.00 in 10.0 mi ENE 5.8 mph - 0.00 in Rain Light Rain
4:53 AM 66.0 °F 66.0 °F 100% 29.99 in 10.0 mi Variable 3.5 mph - 0.01 in   Mostly Cloudy
5:35 AM 66.0 °F 66.0 °F 100% 30.04 in 10.0 mi ESE 3.5 mph - 0.00 in   Mostly Cloudy
5:53 AM 66.0 °F 66.0 °F 100% 30.01 in 10.0 mi East 4.6 mph - 0.00 in   Scattered Clouds
6:37 AM 66.0 °F 66.0 °F 100% 30.06 in 10.0 mi Calm Calm - 0.00 in   Mostly Cloudy
6:53 AM 66.0 °F 66.0 °F 100% 30.03 in 10.0 mi East 3.5 mph - 0.00 in   Overcast
7:13 AM 66.0 °F 66.0 °F 100% 30.05 in 10.0 mi Calm Calm - 0.00 in Rain Light Rain
7:53 AM 66.0 °F 66.0 °F 100% 30.04 in 6.0 mi Calm Calm - 0.06 in Rain Rain
8:53 AM 64.9 °F 64.9 °F 100% 30.06 in 10.0 mi East 5.8 mph - 0.08 in Rain Light Rain
9:25 AM 66.0 °F 66.0 °F 100% 30.10 in 9.0 mi Calm Calm - 0.02 in Rain Light Rain
9:48 AM 66.2 °F 66.2 °F 100% 30.10 in 7.0 mi Calm Calm - 0.05 in Rain Rain
9:53 AM 66.0 °F 66.0 °F 100% 30.09 in 5.0 mi Calm Calm - 0.07 in Rain Rain
10:00 AM 66.0 °F 66.0 °F 100% 30.11 in 5.0 mi Calm Calm - 0.01 in Rain Light Rain
10:27 AM 66.0 °F 66.0 °F 100% 30.09 in 6.0 mi East 6.9 mph - 0.05 in Rain Rain
10:44 AM 66.0 °F 66.0 °F 100% 30.12 in 2.0 mi Calm Calm - 0.11 in Rain Heavy Rain
10:47 AM 66.2 °F 66.2 °F 100% 30.12 in 0.8 mi Calm Calm - 0.20 in Rain Heavy Rain
10:50 AM 66.2 °F 66.2 °F 100% 30.12 in 0.5 mi Calm Calm - 0.24 in Fog , Rain Heavy Rain
10:53 AM 66.0 °F 66.0 °F 100% 30.11 in 0.5 mi Calm Calm - 0.26 in Fog , Rain Heavy Rain
10:56 AM 66.0 °F 66.0 °F 100% 30.13 in 1.0 mi East 3.5 mph - 0.01 in Rain Heavy Rain
11:13 AM 64.9 °F 64.9 °F 100% 30.12 in 3.0 mi East 6.9 mph - 0.13 in Rain Light Rain
11:53 AM 64.9 °F 64.9 °F 100% 30.09 in 5.0 mi East 4.6 mph - 0.20 in Rain Rain
12:18 PM 64.9 °F 64.9 °F 100% 30.10 in 2.0 mi Calm Calm - 0.12 in Rain Heavy Rain
12:37 PM 64.9 °F 64.9 °F 100% 30.10 in 4.0 mi East 3.5 mph - 0.20 in Rain Rain
12:53 PM 64.9 °F 64.9 °F 100% 30.09 in 2.5 mi Calm Calm - 0.28 in Rain Rain
1:02 PM 64.9 °F 64.9 °F 100% 30.09 in 3.0 mi East 5.8 mph - 0.03 in Rain Heavy Rain
1:44 PM 66.0 °F 66.0 °F 100% 30.07 in 10.0 mi NE 3.5 mph - 0.08 in Rain Light Rain
1:53 PM 66.0 °F 66.0 °F 100% 30.06 in 10.0 mi Calm Calm - 0.08 in Rain Light Rain
2:30 PM 66.0 °F 66.0 °F 100% 30.06 in 6.0 mi ENE 3.5 mph - 0.05 in Rain Rain
2:53 PM 66.0 °F 66.0 °F 100% 30.01 in 4.0 mi East 5.8 mph - 0.13 in Rain Heavy Rain
3:05 PM 66.0 °F 66.0 °F 100% 30.05 in 3.0 mi Variable 3.5 mph - 0.04 in Rain Rain
3:27 PM 66.0 °F 66.0 °F 100% 30.03 in 10.0 mi East 8.1 mph - 0.05 in Rain Light Rain
3:40 PM 66.0 °F 66.0 °F 100% 30.02 in 6.0 mi East 9.2 mph - 0.06 in Rain Rain
4:39 PM 64.0 °F 64.0 °F 100% 30.02 in 3.0 mi Variable 4.6 mph 18.4 mph 0.10 in Rain Heavy Rain
4:48 PM 64.4 °F 64.4 °F 100% 30.04 in 1.8 mi NW 10.4 mph 21.9 mph 0.29 in Rain Heavy Rain
5:03 PM 63.0 °F 63.0 °F 100% 30.05 in 1.5 mi North 4.6 mph - 0.17 in Rain Heavy Rain
5:12 PM 63.0 °F 63.0 °F 100% 30.05 in 2.0 mi Variable 5.8 mph - 0.26 in Rain Heavy Rain
5:25 PM 63.0 °F 63.0 °F 100% 30.04 in 4.0 mi ENE 9.2 mph - 0.32 in Rain Rain
5:43 PM 62.1 °F 62.1 °F 100% 30.07 in 10.0 mi Variable 5.8 mph - 0.34 in Rain Light Rain
5:53 PM 61.0 °F 61.0 °F 100% 30.07 in 10.0 mi Variable 4.6 mph - 0.34 in Rain Light Rain
6:27 PM 60.1 °F 60.1 °F 100% 30.08 in 10.0 mi NE 5.8 mph - 0.03 in Rain Light Rain
6:53 PM 59.0 °F 59.0 °F 100% 30.09 in 10.0 mi Variable 5.8 mph - 0.04 in Rain Light Rain
7:22 PM 57.9 °F 57.9 °F 100% 30.10 in 6.0 mi ENE 6.9 mph - 0.14 in Rain Rain
7:46 PM 57.9 °F 57.9 °F 100% 30.12 in 10.0 mi Variable 6.9 mph - 0.16 in Rain Light Rain
7:53 PM 57.0 °F 57.0 °F 100% 30.10 in 10.0 mi ENE 10.4 mph 17.3 mph 0.16 in Rain Light Rain
8:07 PM 57.0 °F 54.0 °F 89% 30.15 in 10.0 mi ENE 10.4 mph 23.0 mph 0.00 in Rain Light Rain
8:53 PM 55.0 °F 55.0 °F 100% 30.15 in 8.0 mi North 4.6 mph - 0.12 in Rain Light Rain
9:04 PM 55.0 °F 55.0 °F 100% 30.15 in 10.0 mi Variable 4.6 mph - 0.00 in Rain Light Rain
9:13 PM 55.0 °F 54.0 °F 96% 30.15 in 10.0 mi NE 10.4 mph - 0.00 in Rain Light Rain
9:53 PM 54.0 °F 53.1 °F 97% 30.15 in 7.0 mi Variable 4.6 mph - 0.03 in Rain Light Rain
10:53 PM 54.0 °F 54.0 °F 100% 30.18 in 10.0 mi Calm Calm - 0.00 in   Overcast
11:53 PM 55.0 °F 55.0 °F 100% 30.21 in 10.0 mi Calm Calm - N/A   Overcast